McConnell AFB, KS

9:47 AM CDT on August 20, 2017 (GMT -0500)
McConnell Air Force Base

Weather History for KIAB - September, 2013

Change the Weather History Date:

Sunday, September 1, 2013

  Actual Average Record
Temperature  
Mean Temperature 82 °F -  
Max Temperature 88 °F 88 °F 105 °F (2000)
Min Temperature 74 °F 66 °F 60 °F (2001)
Cooling Degree Days 17    
Growing Degree Days 32 (Base 50)    
Moisture  
Dew Point 69 °F    
Average Humidity 66    
Maximum Humidity 76    
Minimum Humidity 59    
Precipitation  
Precipitation 0.00 in - - ()
Sea Level Pressure  
Sea Level Pressure 29.87 in    
Wind  
Wind Speed 8 mph (NNW)    
Max Wind Speed 16 mph    
Max Gust Speed 25 mph    
Visibility 10 miles    
Events Rain    
Averages and records for this station are not official NWS values.
T = Trace of Precipitation, MM = Missing Value Source: NWS Daily Summary

Daily Weather History Graph

Daily Weather History Graph

Search for Another Location

Airport or City:

Trip Planner

Search our weather history database for the weather conditions in past years. The results will help you decide how hot, cold, wet, or windy it might be!

Date:

Astronomy

Sep. 01, 2013 Rise Set
Actual Time 6:59 AM CDT 7:57 PM CDT
Civil Twilight 6:32 AM CDT 8:24 PM CDT
Nautical Twilight 6:00 AM CDT 8:56 PM CDT
Astronomical Twilight 5:27 AM CDT 9:29 PM CDT
Moon 3:25 AM CDT (9/1) 5:33 PM CDT (9/1)
Length of Visible Light 13h 51m
Length of Day
12h 58m
Waning Crescent, 13% of the Moon is Illuminated
Sep 1
Waning Crescent
Sep 5
New
Sep 12
First Quarter
Sep 19
Full
Sep 26
Last Quarter

Hourly Weather History & Observations

Time (CDT) Temp. Heat Index Dew Point Humidity Pressure Visibility Wind Dir Wind Speed Gust Speed Precip Events Conditions
12:58 AM 79.7 °F - 68.9 °F 69% 29.78 in 10.0 mi SSE 6.9 mph - N/A   Clear
1:58 AM 79.3 °F - 68.7 °F 70% 29.78 in 10.0 mi SSE 6.9 mph - N/A   Clear
2:58 AM 78.4 °F - 69.1 °F 73% 29.77 in 10.0 mi SSE 5.8 mph - N/A   Clear
3:58 AM 77.4 °F - 69.4 °F 76% 29.77 in 10.0 mi SSE 6.9 mph - N/A   Clear
4:58 AM 77.9 °F - 68.9 °F 74% 29.78 in 10.0 mi SW 10.4 mph - N/A   Clear
5:58 AM 79.9 °F - 66.6 °F 64% 29.78 in 10.0 mi WNW 10.4 mph - N/A   Clear
6:58 AM 81.0 °F 83.6 °F 67.6 °F 64% 29.80 in 10.0 mi NW 12.7 mph 20.7 mph N/A   Clear
7:58 AM 80.2 °F 82.5 °F 66.6 °F 63% 29.82 in 10.0 mi North 13.8 mph 24.2 mph N/A   Clear
8:58 AM 80.6 °F 83.5 °F 68.5 °F 67% 29.85 in 10.0 mi North 16.1 mph - N/A   Clear
9:20 AM 80.6 °F 83.2 °F 68.0 °F 65% 29.89 in 10.0 mi North 13.8 mph 25.3 mph N/A Rain Light Rain
9:44 AM 78.8 °F - 68.0 °F 69% 29.93 in 10.0 mi Variable 3.5 mph - N/A   Partly Cloudy
9:58 AM 79.0 °F - 69.6 °F 73% 29.88 in 10.0 mi North 8.1 mph - 0.00 in   Partly Cloudy
10:58 AM 80.6 °F 83.5 °F 68.5 °F 67% 29.91 in 10.0 mi West 8.1 mph - N/A   Scattered Clouds
11:58 AM 80.2 °F 83.2 °F 69.3 °F 69% 29.93 in 10.0 mi West 5.8 mph - N/A   Scattered Clouds
12:58 PM 81.3 °F 84.8 °F 69.8 °F 68% 29.91 in 10.0 mi Variable 2.3 mph - N/A   Scattered Clouds
1:58 PM 83.7 °F 88.0 °F 70.5 °F 64% 29.89 in 10.0 mi Variable 1.2 mph - N/A   Mostly Cloudy
2:58 PM 84.6 °F 90.3 °F 72.0 °F 66% 29.89 in 10.0 mi WNW 5.8 mph - N/A   Scattered Clouds
3:58 PM 87.1 °F 94.1 °F 72.5 °F 62% 29.88 in 10.0 mi NW 9.2 mph - N/A   Clear
4:58 PM 88.3 °F 95.4 °F 72.1 °F 59% 29.88 in 10.0 mi NW 4.6 mph - N/A   Partly Cloudy
5:58 PM 87.3 °F 94.0 °F 72.1 °F 61% 29.87 in 10.0 mi North 6.9 mph - N/A   Partly Cloudy
6:58 PM 86.9 °F 92.5 °F 71.2 °F 59% 29.87 in 10.0 mi NNW 13.8 mph - N/A   Clear
7:58 PM 84.0 °F 88.7 °F 70.5 °F 64% 29.88 in 10.0 mi North 9.2 mph - N/A   Clear
8:58 PM 81.1 °F 84.0 °F 68.5 °F 65% 29.92 in 10.0 mi North 12.7 mph - N/A   Clear
9:53 PM 78.8 °F - 64.4 °F 61% 29.99 in 8.0 mi North 11.5 mph - N/A   Clear
9:58 PM 78.6 °F - 64.9 °F 63% 29.96 in 9.0 mi NNE 13.8 mph - N/A   Clear
10:58 PM 76.1 °F - 63.5 °F 65% 29.98 in 10.0 mi NNE 8.1 mph - N/A   Clear
11:58 PM 74.1 °F - 62.8 °F 68% 29.99 in 10.0 mi NNE 8.1 mph - N/A   Clear